Weather History for Conway, SC

Change the Weather History Date:

Wednesday, October 17, 2012

  Actual Average Record
Temperature  
Mean Temperature 58 °F -  
Max Temperature 69 °F 76 °F 84 °F (2011)
Min Temperature 46 °F 53 °F 39 °F (2010)
Degree Days  
Heating Degree Days 8    
Growing Degree Days 8 (Base 50)    
Moisture  
Dew Point 52 °F    
Average Humidity 87    
Maximum Humidity 100    
Minimum Humidity 56    
Precipitation  
Precipitation 0.00 in - - ()
Sea Level Pressure  
Sea Level Pressure 29.96 in    
Wind  
Wind Speed 1 mph (ENE)    
Max Wind Speed 7 mph    
Max Gust Speed -    
Visibility 6 miles    
Events      
Averages and records for this station are not official NWS values.
T = Trace of Precipitation, MM = Missing Value Source: NWS Daily Summary

Daily Weather History Graph

Daily Weather History Graph

Search for Another Location

Airport:

Trip Planner

Search our weather history database for the weather conditions in past years. The results will help you decide how hot, cold, wet, or windy it might be!

Date:

Astronomy

Oct. 17, 2012 Rise Set
Actual Time 7:23 AM EDT 6:39 PM EDT
Civil Twilight 6:58 AM EDT 7:04 PM EDT
Nautical Twilight 6:29 AM EDT 7:33 PM EDT
Astronomical Twilight 6:00 AM EDT 8:02 PM EDT
Moon 9:47 AM EDT (10/17) 8:22 PM EDT (10/17)
Length of Visible Light 12h 06m
Length of Day
11h 16m
Waxing Crescent, 7% of the Moon is Illuminated
Oct 17
Waxing Crescent
Oct 21
First Quarter
Oct 29
Full
Nov 6
Last Quarter
Nov 13
New

Hourly Weather History & Observations

Time (EDT) Temp. Dew Point Humidity Pressure Visibility Wind Dir Wind Speed Gust Speed Precip Events Conditions
12:15 AM 50.0 °F 50.0 °F 100% 29.94 in 5.0 mi Calm Calm - N/A   Clear
12:35 AM 50.0 °F 50.0 °F 100% 29.94 in 5.0 mi Calm Calm - N/A   Clear
12:55 AM 50.0 °F 50.0 °F 100% 29.93 in 5.0 mi Calm Calm - N/A   Clear
1:15 AM 48.2 °F 48.2 °F 100% 29.94 in 5.0 mi Calm Calm - N/A   Clear
1:35 AM 48.2 °F 48.2 °F 100% 29.94 in 5.0 mi Calm Calm - N/A   Clear
1:55 AM 48.2 °F 48.2 °F 100% 29.94 in 7.0 mi Calm Calm - N/A   Clear
2:15 AM 46.4 °F 46.4 °F 100% 29.94 in 5.0 mi Calm Calm - N/A   Clear
2:35 AM 46.4 °F 46.4 °F 100% 29.94 in 5.0 mi Calm Calm - N/A   Clear
2:55 AM 48.2 °F 48.2 °F 100% 29.94 in 7.0 mi Calm Calm - N/A   Clear
3:15 AM 46.4 °F 46.4 °F 100% 29.93 in 5.0 mi Calm Calm - N/A   Clear
3:35 AM 46.4 °F 46.4 °F 100% 29.94 in 5.0 mi Calm Calm - N/A   Clear
3:55 AM 46.4 °F 46.4 °F 100% 29.94 in 5.0 mi Calm Calm - N/A   Clear
4:15 AM 46.4 °F 46.4 °F 100% 29.94 in 7.0 mi Calm Calm - N/A   Clear
4:35 AM 46.4 °F 46.4 °F 100% 29.94 in 5.0 mi Calm Calm - N/A   Clear
4:55 AM 46.4 °F 46.4 °F 100% 29.95 in 7.0 mi Calm Calm - N/A   Clear
5:15 AM 46.4 °F 46.4 °F 100% 29.95 in 7.0 mi Calm Calm - N/A   Clear
5:35 AM 46.4 °F 46.4 °F 100% 29.95 in 5.0 mi Calm Calm - N/A   Clear
5:55 AM 46.4 °F 46.4 °F 100% 29.95 in 7.0 mi Calm Calm - N/A   Clear
6:15 AM 46.4 °F 46.4 °F 100% 29.96 in 5.0 mi Calm Calm - N/A   Clear
6:35 AM 46.4 °F 46.4 °F 100% 29.97 in 5.0 mi Calm Calm - N/A   Clear
6:55 AM 46.4 °F 46.4 °F 100% 29.97 in 7.0 mi Calm Calm - N/A   Clear
7:15 AM 46.4 °F 46.4 °F 100% 29.97 in 7.0 mi Calm Calm - N/A   Clear
7:55 AM 48.2 °F 48.2 °F 100% 29.98 in 7.0 mi Calm Calm - N/A   Clear
8:15 AM 50.0 °F 50.0 °F 100% 29.99 in 5.0 mi Calm Calm - N/A   Clear
8:35 AM 50.0 °F 50.0 °F 100% 29.99 in 7.0 mi Calm Calm - N/A   Clear
8:55 AM 51.8 °F 51.8 °F 100% 30.00 in 5.0 mi Calm Calm - N/A   Clear
9:15 AM 51.8 °F 51.8 °F 100% 30.01 in 5.0 mi Calm Calm - N/A   Clear
9:35 AM 55.4 °F 53.6 °F 94% 30.01 in 7.0 mi Calm Calm - N/A   Clear
9:55 AM 57.2 °F 53.6 °F 88% 30.02 in 5.0 mi Calm Calm - N/A   Clear
10:15 AM 59.0 °F 53.6 °F 82% 30.02 in 5.0 mi Calm Calm - N/A   Haze
10:35 AM 59.0 °F 53.6 °F 82% 30.01 in 7.0 mi Calm Calm - N/A   Clear
10:55 AM 59.0 °F 53.6 °F 82% 30.02 in 7.0 mi Calm Calm - N/A   Clear
11:15 AM 60.8 °F 53.6 °F 77% 30.02 in 7.0 mi Calm Calm - N/A   Clear
11:35 AM 62.6 °F 53.6 °F 72% 30.02 in 7.0 mi Calm Calm - N/A   Clear
11:55 AM 62.6 °F 53.6 °F 72% 30.01 in 7.0 mi Calm Calm - N/A   Clear
12:15 PM 64.4 °F 53.6 °F 68% 30.01 in 5.0 mi Calm Calm - N/A   Haze
12:35 PM 64.4 °F 53.6 °F 68% 30.01 in 5.0 mi Calm Calm - N/A   Haze
12:55 PM 66.2 °F 53.6 °F 64% 30.00 in 7.0 mi NNE 4.6 mph - N/A   Clear
1:15 PM 68.0 °F 51.8 °F 56% 29.99 in 7.0 mi NE 3.5 mph - N/A   Clear
1:35 PM 68.0 °F 51.8 °F 56% 29.98 in 7.0 mi ENE 3.5 mph - N/A   Clear
1:55 PM 68.0 °F 51.8 °F 56% 29.98 in 7.0 mi NNE 3.5 mph - N/A   Clear
2:15 PM 68.0 °F 51.8 °F 56% 29.97 in 7.0 mi Calm Calm - N/A   Clear
2:35 PM 68.0 °F 53.6 °F 60% 29.96 in 7.0 mi East 3.5 mph - N/A   Clear
2:55 PM 68.0 °F 53.6 °F 60% 29.95 in 7.0 mi East 4.6 mph - N/A   Clear
3:15 PM 69.8 °F 53.6 °F 56% 29.96 in 7.0 mi NE 4.6 mph - N/A   Clear
3:35 PM 68.0 °F 53.6 °F 60% 29.95 in 5.0 mi NE 4.6 mph - N/A   Haze
3:55 PM 68.0 °F 53.6 °F 60% 29.95 in 7.0 mi NE 5.8 mph - N/A   Clear
4:15 PM 69.8 °F 55.4 °F 60% 29.94 in 7.0 mi NE 5.8 mph - N/A   Clear
4:35 PM 69.8 °F 55.4 °F 60% 29.93 in 7.0 mi ENE 5.8 mph - N/A   Clear
4:55 PM 69.8 °F 55.4 °F 60% 29.93 in 7.0 mi NE 6.9 mph - N/A   Clear
5:15 PM 69.8 °F 55.4 °F 60% 29.93 in 7.0 mi East 3.5 mph - N/A   Clear
5:35 PM 68.0 °F 55.4 °F 64% 29.94 in 7.0 mi ESE 4.6 mph - N/A   Clear
5:55 PM 68.0 °F 55.4 °F 64% 29.94 in 7.0 mi SSE 4.6 mph - N/A   Clear
6:15 PM 64.4 °F 55.4 °F 73% 29.95 in 7.0 mi SE 3.5 mph - N/A   Clear
6:35 PM 60.8 °F 57.2 °F 88% 29.95 in 7.0 mi Calm Calm - N/A   Clear
6:55 PM 59.0 °F 57.2 °F 94% 29.95 in 7.0 mi Calm Calm - N/A   Clear
7:15 PM 57.2 °F 57.2 °F 100% 29.95 in 7.0 mi Calm Calm - N/A   Clear
7:35 PM 57.2 °F 57.2 °F 100% 29.96 in 7.0 mi Calm Calm - N/A   Clear
7:55 PM 55.4 °F 55.4 °F 100% 29.95 in 7.0 mi Calm Calm - N/A   Clear
8:15 PM 55.4 °F 55.4 °F 100% 29.96 in 5.0 mi Calm Calm - N/A   Clear
8:35 PM 55.4 °F 55.4 °F 100% 29.96 in 5.0 mi Calm Calm - N/A   Clear
8:55 PM 53.6 °F 53.6 °F 100% 29.96 in 5.0 mi Calm Calm - N/A   Clear
9:15 PM 53.6 °F 53.6 °F 100% 29.97 in 5.0 mi Calm Calm - N/A   Clear
9:35 PM 53.6 °F 53.6 °F 100% 29.97 in 5.0 mi Calm Calm - N/A   Clear
9:55 PM 53.6 °F 53.6 °F 100% 29.97 in 7.0 mi Calm Calm - N/A   Clear
10:35 PM 53.6 °F 53.6 °F 100% 29.97 in 5.0 mi Calm Calm - N/A   Clear
10:55 PM 53.6 °F 53.6 °F 100% 29.97 in 7.0 mi Calm Calm - N/A   Clear
11:15 PM 53.6 °F 53.6 °F 100% 29.96 in 7.0 mi Calm Calm - N/A   Clear
11:55 PM 53.6 °F 53.6 °F 100% 29.95 in 7.0 mi Calm Calm - N/A   Clear